Theta_e
285 285 284 284 283 284 283 282 282 282 282 282 282 281 281 281 280 280 279 280 279 279 279 278 278 278 279 278 278 278 277 277 277 277 276 276 276 276 277 276 275 276
285 285 284 284 284 283 283 283 283 283 282 281 281 281 280 280 280 280 279 279 279 278 278 278 277 277 277 277 277 276 276 276 276 278 276 276 275 275 275 275 275 275
285 284 284 283 283 282 282 282 283 282 282 281 281 281 281 280 280 279 279 278 277 277 277 277 277 276 276 276 276 276 276 275 275 275 276 275 275 274 274 275 275 274
284 284 283 283 283 283 283 282 282 282 281 281 280 281 281 280 279 278 278 278 277 277 276 276 276 276 275 275 275 275 275 275 274 274 274 274 275 274 274 274 274 274
284 283 283 283 283 283 283 282 282 281 280 280 280 280 280 279 278 277 277 277 276 276 276 276 275 275 275 275 274 274 275 274 274 273 273 273 273 274 274 274 273 273
283 283 283 283 283 283 282 282 281 281 280 280 280 279 278 278 277 277 277 276 276 276 275 275 275 274 274 274 274 274 274 273 273 272 272 272 272 273 275 274 273 272
283 282 282 282 282 282 282 281 280 280 280 279 279 278 278 277 277 277 276 276 275 275 275 274 274 274 274 273 273 273 273 272 272 272 271 271 272 271 272 272 272 272
282 282 282 282 281 281 281 281 281 280 279 278 278 278 277 277 277 277 276 276 275 274 274 274 273 273 273 273 272 272 272 273 272 271 270 270 271 271 271 272 272 271
282 282 282 281 281 280 280 280 280 279 278 279 278 278 278 277 278 277 276 275 274 274 273 273 273 272 272 272 272 271 271 270 271 270 270 270 270 271 271 271 271 271
282 282 281 281 280 280 280 280 280 279 279 279 279 279 278 278 277 276 275 274 273 273 272 272 272 272 272 272 271 271 270 270 270 270 270 270 271 270 271 271 270 270
282 281 281 281 280 280 280 280 280 279 279 279 278 277 277 276 276 275 274 273 273 272 272 271 272 272 271 271 271 270 270 270 270 270 270 271 271 271 272 270 270 270
281 281 281 281 281 280 281 280 279 279 279 278 278 277 276 275 275 275 274 273 272 272 271 271 271 271 271 270 270 270 270 270 270 270 271 271 271 271 271 271 270 270
282 281 282 281 281 281 280 279 278 278 278 278 277 276 275 275 274 274 274 273 272 271 271 271 271 270 269 269 269 269 270 270 270 269 270 270 270 270 270 270 270 270
282 282 282 282 281 280 279 279 278 278 278 277 276 276 275 275 274 273 273 273 272 270 271 270 270 269 269 269 269 269 270 270 270 269 269 269 269 269 270 270 270 270
282 282 282 281 280 279 278 278 277 277 276 276 276 275 274 274 274 273 271 271 270 271 271 271 270 270 269 269 269 269 270 271 270 269 268 268 268 268 269 269 268 269
282 282 281 280 279 278 278 277 277 276 275 275 275 274 274 273 273 272 272 271 271 271 270 270 270 269 273 276 275 271 271 271 270 270 271 270 270 269 269 269 269 268
281 281 280 279 279 278 277 277 276 276 275 275 274 273 273 272 272 272 271 271 271 270 269 269 269 269 275 277 279 278 272 271 271 271 270 270 270 270 269 269 268 268
281 280 279 279 278 277 276 276 276 275 274 274 273 273 272 272 272 272 271 271 270 270 269 269 268 274 276 278 279 279 276 273 272 271 270 270 271 270 268 267 266 267
280 279 278 278 277 276 275 275 274 274 274 273 273 273 272 272 272 271 270 270 270 269 268 268 267 274 276 278 278 278 278 275 272 272 271 271 270 268 266 266 267 267
279 278 277 277 276 275 274 274 274 274 274 273 273 272 272 272 271 270 270 269 269 268 267 266 266 272 276 277 277 277 277 276 273 272 271 270 267 267 267 267 267 266
279 278 277 277 276 275 274 274 274 274 273 273 272 272 272 271 270 270 269 268 267 266 265 265 265 272 275 277 277 277 276 276 271 270 268 267 267 267 267 267 267 267
279 278 277 276 275 273 273 274 274 273 273 272 271 272 271 270 270 268 268 266 266 264 264 264 264 273 275 276 277 276 277 271 270 269 268 267 267 267 267 267 267 267
279 278 277 275 274 273 273 273 274 273 273 272 271 271 270 269 269 268 267 265 264 263 263 263 263 270 274 275 276 276 276 270 269 267 267 266 266 266 266 267 267 267
279 278 277 275 274 273 273 274 274 273 272 271 271 270 270 269 268 265 263 263 264 263 263 262 261 266 273 274 275 276 274 269 268 267 266 265 265 265 266 266 268 271
278 278 277 275 274 274 273 274 273 273 272 270 270 270 269 267 265 264 262 261 262 262 266 264 260 264 271 273 275 275 274 270 269 266 265 264 264 264 266 267 268 270
278 277 277 275 274 274 273 274 273 270 269 269 268 268 267 265 263 263 263 262 261 261 262 264 262 261 263 272 274 275 276 270 268 266 265 264 263 264 265 267 269 269
Wind_Speed
9 8 9 9 8 8 10 10 8 8 7 6 8 6 7 5 4 5 5 5 5 6 5 5 5 5 5 5 5 6 6 6 6 5 6 6 6 6 6 5 4 3
8 8 7 7 7 6 6 7 8 9 8 7 6 7 5 6 4 5 5 6 5 5 5 5 5 5 5 5 5 6 6 6 6 4 6 7 4 5 5 4 4 3
8 8 8 9 10 9 8 6 6 7 8 7 6 6 6 5 6 4 5 5 6 5 5 5 6 5 5 5 5 6 6 6 6 4 5 5 4 5 3 4 4 4
7 8 8 8 8 9 8 8 6 6 6 7 7 6 6 5 6 6 5 4 5 5 5 5 5 5 5 5 5 6 5 5 3 4 5 4 4 3 3 3 3 4
9 8 7 8 7 8 8 9 8 7 7 7 6 6 7 7 6 6 5 5 5 5 5 5 5 5 4 5 4 5 5 5 4 4 5 4 3 3 2 3 3 3
6 6 7 9 9 10 9 8 8 8 7 7 7 6 6 6 6 6 6 6 4 5 5 5 5 4 4 4 5 5 4 5 3 4 4 4 3 3 2 3 2 2
10 8 8 7 8 7 8 8 7 7 6 6 6 6 6 6 6 6 5 5 5 5 5 5 5 4 3 4 5 5 5 4 3 4 4 3 3 3 3 2 2 2
9 7 8 8 8 8 8 8 8 7 7 6 7 5 5 6 6 5 4 5 5 5 5 5 4 4 4 4 5 5 4 3 4 3 3 2 2 1 2 2 2 1
9 9 8 9 9 8 8 8 8 7 6 8 7 6 5 6 6 5 5 5 5 5 5 4 4 4 3 5 5 5 5 3 3 3 3 2 1 1 1 1 1 2
10 9 10 10 10 8 9 8 7 7 6 7 7 6 7 5 5 6 5 5 5 5 5 5 5 4 4 4 5 5 4 4 3 2 2 1 1 1 1 1 2 2
11 10 11 10 10 9 10 9 8 8 7 7 7 6 5 6 5 5 5 5 6 5 5 5 5 5 6 5 4 4 5 4 3 2 1 1 1 1 2 1 2 3
11 11 12 12 11 10 10 9 8 8 8 7 7 7 6 5 7 6 6 6 5 5 5 5 4 5 5 5 5 5 4 4 3 2 1 0 0 0 1 1 2 3
12 12 12 12 11 10 9 8 8 8 9 9 7 7 8 7 6 6 5 6 5 5 5 5 5 4 5 5 5 5 5 4 3 3 2 1 0 0 1 2 2 2
12 11 11 10 9 9 9 8 8 8 8 7 7 8 8 7 8 7 5 5 5 4 4 4 4 4 4 4 4 4 4 4 4 3 3 1 1 1 1 1 1 1
10 9 8 9 9 9 9 9 9 8 7 8 7 7 6 6 6 6 6 5 4 4 4 4 4 5 4 4 4 4 4 4 4 4 3 2 1 1 0 0 1 1
10 9 10 9 9 10 10 9 9 9 8 8 8 7 7 6 6 6 6 7 7 6 4 4 3 3 5 9 7 5 5 4 4 3 3 2 1 0 0 0 0 1
10 10 9 10 10 9 9 10 10 8 8 8 8 8 8 7 7 8 8 6 6 6 5 4 3 3 7 7 8 11 6 4 4 3 2 2 1 1 2 0 0 1
11 10 10 10 9 10 9 8 8 8 8 8 8 8 7 7 7 8 7 6 6 5 5 4 4 6 7 7 7 9 8 5 4 3 2 2 2 2 1 0 1 2
9 10 10 9 10 9 8 8 9 9 8 8 9 7 7 8 9 8 7 6 6 7 5 4 4 7 7 7 8 8 8 6 3 4 3 3 2 2 2 3 3 4
10 9 10 10 9 8 8 9 9 11 9 7 6 6 7 6 6 8 7 7 7 6 5 4 4 6 8 7 9 9 8 6 4 4 3 3 2 3 3 4 4 4
10 10 10 9 9 9 9 9 10 9 9 8 8 9 9 9 9 8 7 6 6 5 5 5 5 9 8 9 9 9 8 6 5 3 2 2 4 4 4 5 5 5
11 11 10 9 9 9 10 11 10 10 11 9 7 6 5 4 5 5 7 7 5 5 5 6 5 9 9 10 10 9 9 5 4 3 2 3 5 5 5 5 5 5
11 12 11 10 10 11 12 12 12 10 8 7 8 8 9 8 8 7 6 7 6 6 6 5 5 7 10 10 10 11 7 5 4 3 3 4 6 5 5 5 5 5
13 13 13 12 11 13 14 12 10 7 9 9 12 11 11 9 7 6 5 6 7 7 7 6 5 7 10 10 11 12 8 5 4 5 4 5 5 5 5 5 7 11
11 11 12 12 13 13 11 12 11 11 8 7 7 7 7 6 6 7 6 5 5 6 7 7 5 6 10 11 12 12 9 5 6 5 5 5 5 6 5 5 6 7
10 12 12 12 14 12 10 11 7 6 8 9 6 5 6 6 6 6 7 7 5 5 6 5 5 5 5 12 12 12 13 7 5 5 6 6 5 5 5 4 5 6
Wind_Direction
142 143 142 143 144 144 144 142 143 136 134 135 130 136 129 135 118 107 106 94 90 88 81 78 75 73 72 71 75 78 74 74 63 59 61 62 54 55 49 42 41 42
148 144 139 135 132 135 137 139 143 139 136 135 133 130 131 124 122 113 108 99 91 90 87 82 78 78 75 74 72 75 68 63 60 45 65 58 52 57 50 45 47 29
146 146 148 148 147 145 139 134 131 132 132 136 132 132 131 127 120 106 104 107 102 95 87 85 78 75 77 78 74 73 74 68 63 58 70 67 53 56 43 42 44 45
152 153 151 145 143 143 141 135 131 127 128 131 141 143 131 126 118 116 111 108 106 98 93 83 84 78 81 82 83 78 82 74 77 71 70 58 48 59 39 44 37 34
155 152 149 144 142 140 142 140 142 145 144 142 133 132 127 126 122 122 121 112 110 107 96 93 85 83 84 80 85 87 75 76 58 71 74 61 37 51 31 48 34 18
153 154 152 152 152 149 148 148 149 147 144 142 144 132 130 129 129 132 131 126 124 118 110 102 96 88 92 97 90 89 90 78 65 68 64 63 35 31 36 33 28 11
160 158 156 151 147 149 143 147 149 145 146 143 129 134 136 136 138 139 137 137 133 128 120 115 112 110 112 110 101 96 85 85 72 73 73 52 61 13 18 19 9 360
161 157 154 151 148 149 148 152 154 151 146 139 138 141 138 140 140 139 141 137 134 129 120 114 115 123 123 115 110 101 89 85 76 78 85 69 71 53 7 360 7 17
157 159 157 156 153 154 157 157 154 147 146 142 144 146 143 144 147 147 147 139 134 132 127 130 135 129 127 118 114 109 104 90 88 96 99 95 78 39 14 2 16 25
165 163 160 161 161 163 162 159 152 151 146 141 146 147 150 147 144 148 144 143 140 137 140 145 141 134 124 119 119 115 111 104 99 90 94 99 100 54 30 24 14 21
169 167 166 168 167 165 164 158 157 151 148 148 148 154 154 148 148 147 145 146 150 153 156 153 151 140 130 123 117 115 114 113 106 98 91 82 93 49 32 41 27 29
171 171 174 173 170 167 164 163 157 153 152 152 158 159 157 160 158 159 157 155 151 161 161 153 148 142 136 134 129 123 118 115 116 114 128 107 104 353 34 42 37 25
176 180 177 176 172 167 162 159 160 158 159 163 165 163 163 164 164 158 154 152 159 160 161 155 145 140 139 135 134 131 132 129 130 145 157 180 192 181 47 40 32 16
182 180 179 174 168 163 163 162 160 163 166 161 160 166 170 170 168 160 155 147 161 162 160 145 139 144 149 146 141 140 137 149 152 157 164 183 167 76 56 40 357 329
178 180 177 171 167 164 165 166 166 165 163 162 168 167 165 168 158 151 147 147 155 159 158 145 146 161 162 156 147 148 149 156 158 160 164 157 120 94 26 26 308 292
182 180 179 171 169 172 172 169 168 167 166 166 169 168 166 162 157 153 155 161 159 166 159 148 164 174 182 179 173 157 161 159 153 163 148 130 111 111 225 214 221 76
184 186 177 178 177 170 172 170 170 168 168 169 168 166 167 163 159 156 154 169 172 170 164 163 174 190 191 194 184 165 156 160 156 164 150 137 155 175 211 194 26 335
190 182 180 181 175 179 173 172 166 167 172 172 169 170 171 164 172 175 172 168 171 171 165 173 180 197 193 197 190 181 166 160 164 155 158 165 182 196 170 159 233 249
186 185 186 181 183 177 170 168 171 173 175 174 182 178 159 176 177 164 179 178 177 176 175 175 192 202 198 199 193 196 192 169 165 169 179 194 185 154 180 214 217 234
187 186 188 187 179 174 171 175 176 185 182 178 166 161 176 179 179 182 179 186 185 179 174 176 192 213 197 202 198 199 196 190 157 163 166 179 178 198 209 215 223 225
189 189 191 186 182 177 176 180 184 182 179 180 177 180 182 186 184 186 193 186 185 171 165 191 205 213 204 204 204 196 202 163 133 139 150 182 209 210 216 224 232 230
187 190 191 187 181 177 180 187 188 187 183 176 179 184 184 170 191 186 188 187 182 169 168 203 225 213 207 206 204 198 193 132 143 147 185 208 217 221 227 231 234 234
188 189 191 185 183 183 191 193 189 188 185 174 180 187 169 189 194 191 189 181 179 179 182 205 220 222 212 208 203 199 181 140 144 157 187 216 232 229 235 240 240 242
192 188 189 189 186 193 196 197 193 188 188 183 185 180 189 195 183 183 189 186 185 190 188 192 213 228 219 212 204 208 177 153 158 178 203 209 235 241 234 243 245 252
190 190 192 189 194 200 196 193 192 193 183 173 193 188 189 165 174 187 191 197 198 190 189 193 203 227 226 219 210 209 200 162 170 169 203 226 228 248 247 228 248 251
190 191 194 191 197 196 192 198 182 161 173 179 185 182 174 175 179 188 194 201 192 186 201 194 194 219 237 225 217 211 207 169 170 176 210 224 225 226 246 249 228 236